Regional Weather Roundup
Issued by NWS Northern Indiana

Home | Current Version | Previous Version | Graphics & Text | Print | Product List | Glossary On
Versions: 1 2 3 4 5 6 7 8 9 10 11 12 13 14 15 16 17 18 19 20 21 22 23 24 25 26 27 28 29 30 31 32 33 34 35 36 37 38 39 40 41 42 43 44 45 46 47 48 49 50
702
ASUS43 KIWX 220010
RWRIWX

KIWX WEATHER ROUNDUP
NATIONAL WEATHER SERVICE NORTHERN INDIANA
800 PM EDT MON AUG 21 2017

NOTE: "FAIR" INDICATES FEW OR NO CLOUDS BELOW 12,000 FEET WITH NO
SIGNIFICANT WEATHER AND/OR OBSTRUCTIONS TO VISIBILITY.

* THESE STATIONS ARE NOT UNDER NWS QUALITY CONTROL. THEY ALSO MAY NOT
  REPORT WEATHER SUCH AS PRECIPITATION OR FOG.

INZ001>027-220100-
NORTHERN INDIANA

CITY           SKY/WX    TMP DP  RH WIND       PRES   REMARKS
GARY*          MOCLDY    84  70  61 SW13      30.02R
VALPARAISO     CLOUDY    82  73  74 SW6       30.02S
6HR MIN TEMP:  81; 6HR MAX TEMP:  86;

MICHIGAN CITY* CLOUDY    79  70  73 SW5       30.02S
LAPORTE*       CLOUDY    80  71  75 S6        30.02F
6HR MIN TEMP:  80; 6HR MAX TEMP:  84;

KNOX*          MOCLDY    79  72  78 S5        30.01F
SOUTH BEND     CLOUDY    81  72  74 SW8       30.02S
6HR MIN TEMP:  79; 6HR MAX TEMP:  85;

ELKHART*       CLOUDY    81  70  69 SW9       30.02S
GOSHEN         CLOUDY    80  69  69 S5        30.02S
6HR MIN TEMP:  80; 6HR MAX TEMP:  86;

MONTICELLO*    CLOUDY    80  70  70 S7        30.02F
6HR MIN TEMP:  80; 6HR MAX TEMP:  85;

LOGANSPORT*    CLOUDY    79  68  69 S8        30.05F
ROCHESTER*     PTCLDY   N/A N/A N/A S6        30.04S
WARSAW*        CLOUDY    81  72  74 SW3       30.04R
AUBURN*        CLOUDY    81  68  65 SW3       30.04F
FORT WAYNE     MOCLDY    82  70  66 SW15      30.05R
6HR MIN TEMP:  82; 6HR MAX TEMP:  87;

HUNTINGTON*    PTCLDY    79  69  70 S5        30.05S
6HR MIN TEMP:  79; 6HR MAX TEMP:  87;

PERU/GRISSOM   CLOUDY    80  74  81 SW8       30.04R
6HR MIN TEMP:  80; 6HR MAX TEMP:  86;

MARION*        CLOUDY    77  70  78 S7        30.05F

$$
INZ028>050-220100-
CENTRAL INDIANA

CITY           SKY/WX    TMP DP  RH WIND       PRES   REMARKS
LAFAYETTE      CLOUDY    79  73  82 S6        30.03S
6HR MIN TEMP:  78; 6HR MAX TEMP:  85;

KOKOMO*        MOCLDY    78  70  76 SW7       30.06S
6HR MIN TEMP:  78; 6HR MAX TEMP:  85;

MUNCIE*        PTCLDY    81  70  69 SW7       30.06F
6HR MIN TEMP:  78; 6HR MAX TEMP:  87; 6HR PCP:  0.01;

INDIANAPOLIS   MOCLDY    77  71  82 S7        30.06S
6HR MIN TEMP:  76; 6HR MAX TEMP:  88; 6HR PCP:  0.01;


$$
MIZ043>046-050>051-056>058-064>065-071>073-077>080-220100-
SOUTHWEST LOWER MICHIGAN

CITY           SKY/WX    TMP DP  RH WIND       PRES   REMARKS
BATTLE CREEK   CLOUDY    80  68  66 S9        30.01S
6HR MIN TEMP:  80; 6HR MAX TEMP:  86;

BENTON HARBOR  PTCLDY    82  70  66 S8        29.98F
6HR MIN TEMP:  76; 6HR MAX TEMP:  85;

COLDWATER*     CLOUDY    80  67  66 S3        30.02F
6HR MIN TEMP:  80; 6HR MAX TEMP:  87;

HILLSDALE*     CLOUDY    79  66  65 S6        30.03F
HOLLAND        LGT RAIN  77  67  71 SW12G22   30.00R
6HR MIN TEMP:  75; 6HR MAX TEMP:  81; 6HR PCP:  0.01;

GRAND RAPIDS   CLOUDY    80  69  69 S8        29.98R
6HR MIN TEMP:  80; 6HR MAX TEMP:  83;

KALAMAZOO      CLOUDY    81  66  60 S8        30.00S
6HR MIN TEMP:  81; 6HR MAX TEMP:  87;

STURGIS*       PTCLDY    79  70  72 S6        30.02S
6HR MIN TEMP:  79; 6HR MAX TEMP:  84;

THREE RIVERS*  FAIR      82  69  65 SW8       30.02S
6HR MIN TEMP:  82; 6HR MAX TEMP:  87;


$$
OHZ001>008-015>018-024>025-220100-
NORTHWEST OHIO

CITY           SKY/WX    TMP DP  RH WIND       PRES   REMARKS
WAUSEON*       FAIR      81  72  74 W5        30.02S
DEFIANCE       CLOUDY    82  69  64 SW6       30.03R
6HR MIN TEMP:  82; 6HR MAX TEMP:  87;

FINDLAY        PTCLDY    79  69  71 S12       30.03F
6HR MIN TEMP:  74; 6HR MAX TEMP:  87; 6HR PCP:  0.28;

TOLEDO EXPRESS CLEAR     82  73  74 SW7       30.01R
6HR MIN TEMP:  82; 6HR MAX TEMP:  87;

TOLEDO METCALF PTCLDY    82  75  79 S5        30.02R
6HR MIN TEMP:  82; 6HR MAX TEMP:  89;

LIMA           CLEAR     78  68  71 SW8       30.06F
6HR MIN TEMP:  74; 6HR MAX TEMP:  86; 6HR PCP:  0.13;


$$
AND FOR LAKE MICHIGAN COASTAL AND OPEN LAKE BUOY OBSERVATIONS

STATION/POSITION TEMP    WIND        PRES    VSBY  WAVE
                 AIR SEA DIR/SP/G                  HT/PER
                 (F)     (DEG/KT/KT) (MB)    (MI)  (FT/S)
CALUMET HARBOR    83     200/ 10/ 14 1015.6R
MICHIGAN CITY     81     180/  9/ 11   N/A
BURNS HARBOR      82     200/ 11/ 16 1016.6R
SAINT JOSEPH      81     200/  7/ 12 1015.6
SOUTH LAKE BUOY   74 72  180/ 12/ 16 1014.8F         1
4 MI NW BRIDGMAN  78 75  220/ 10/ 12 1015.1          1
MICHIGAN CITY     79 75  200/  8/  8   N/A           1

$$
&&




USA.gov is the U.S. government's official web portal to all federal, state and local government web resources and services.